Location: Unspecified
(38.9917°N, 0.0000°E)
Time: 23:10:14
(UTC+00:00)

OTV 5 (USA 277) - Visible Passes

Search period start: 18 June 2019 00:00
Search period end: 28 June 2019 00:00
Orbit: 310 x 325 km, 54.5° (Epoch: 08 May)

Date Brightness Start Highest point End Pass type
(mag) Time Alt. Az. Time Alt. Az. Time Alt. Az.
18 Jun ? 00:08:18 10° NNW 00:08:18 10° NNW 00:08:30 10° N visible
19 Jun ? 23:03:08 14° NNW 23:03:08 14° NNW 23:04:26 10° N visible
20 Jun ? 03:47:44 10° N 03:49:24 15° NNE 03:51:03 10° ENE visible
20 Jun ? 21:42:46 52° WNW 21:42:56 53° NW 21:45:39 10° NE visible
21 Jun ? 04:01:50 10° NNW 04:04:21 31° NE 04:06:50 10° ESE visible
21 Jun ? 20:21:10 10° S 20:23:29 24° SE 20:25:48 10° ENE visible
21 Jun ? 21:55:36 10° W 21:57:47 21° NW 21:59:59 10° NNE visible
22 Jun ? 02:43:41 10° N 02:44:25 11° NNE 02:45:10 10° NE visible
22 Jun ? 20:35:21 10° SW 20:38:06 84° SE 20:40:52 10° NE visible
22 Jun ? 22:12:02 10° NW 22:12:48 11° NNW 22:13:34 10° N visible
23 Jun ? 02:57:15 10° NNW 02:59:26 21° NE 03:01:37 10° E visible
23 Jun ? 20:50:22 10° WSW 20:52:53 31° NW 20:55:25 10° NNE visible
24 Jun ? 03:11:36 10° NW 03:14:18 53° NE 03:16:59 10° ESE visible
24 Jun ? 21:06:09 10° WNW 21:07:50 15° NNW 21:09:30 10° N visible
25 Jun ? 01:52:48 10° N 01:54:30 15° NNE 01:56:11 10° ENE visible
25 Jun ? 03:26:22 10° WNW 03:29:00 42° SW 03:31:36 10° SSE visible
26 Jun ? 02:06:55 10° NNW 02:09:26 31° NE 02:11:57 10° ESE visible
26 Jun ? 03:41:58 10° W 03:43:33 14° SW 03:45:07 10° SSW visible
26 Jun ? 20:00:42 10° W 20:02:53 20° NW 20:05:04 10° NNE visible
27 Jun ? 00:48:44 10° N 00:49:31 11° NNE 00:50:15 10° NE visible
27 Jun ? 20:17:12 10° NW 20:17:54 11° NNW 20:18:37 10° NNW visible
